Location: Unspecified
(48.5670°N, 0.0000°E)
Time: 00:58:05
(UTC+00:00)

Vanguard 2 Rocket - Pass Details

Date: 25 August 2019
Orbit: 554 x 3327 km, 32.9° (Epoch: 17 October)

Event Time Altitude Azimuth Distance (km) Brightness Sun altitude
Rises 03:10:39 0° 236° (SW) 4,930 - -17.5°
Reaches altitude 10° 03:13:39 10° 228° (SW) 4,271 - -17.1°
Exits shadow 03:16:28 20° 219° (SW) 3,781 9.4 -16.8°
Maximum altitude 03:25:03 41° 164° (SSE) 3,410 9.6 -15.7°
Drops below altitude 10° 03:41:50 10° 103° (ESE) 6,200 11.7 -13.4°
Sets 03:47:19 0° 98° (E) 7,311 12.3 -12.7°
